Location: Unspecified
(52.1384°N, 8.6525°W)
Time: 18:14:40
(UTC+00:00)

N. Korean satellite - Pass Details

Date: 04 November 2020
Orbit: 453 x 503 km, 97.2° (Epoch: 04 December)

Event Time Altitude Azimuth Distance (km) Brightness Sun altitude
Rises 06:33:42 0° 10° (N) 2,482 10.1 -9.9°
Reaches altitude 10° 06:35:45 10° 7° (N) 1,603 9.1 -9.6°
Maximum altitude 06:39:08 60° 287° (WNW) 530 6.4 -9.1°
Drops below altitude 10° 06:42:30 10° 207° (SSW) 1,598 9.1 -8.6°
Sets 06:44:33 0° 204° (SSW) 2,472 10.1 -8.3°
